Location: Ostrava
(49.8330°N, 18.2830°E)
Time: 07:39:29
(UTC+02:00)

Transit 2A - All Passes

Search period start: 18 September 2014 00:00
Search period end: 28 September 2014 00:00
Orbit: 601 x 962 km, 66.7° (Epoch: 16 September)

Date Brightness Start Highest point End Pass type
(mag) Time Alt. Az. Time Alt. Az. Time Alt. Az.
18 Sep - 11:44:45 10° SSE 11:48:00 21° ESE 11:51:17 10° ENE daylight
18 Sep - 13:26:31 10° SW 13:30:46 55° NW 13:35:11 10° NNE daylight
18 Sep - 15:12:22 10° WNW 15:15:00 15° NNW 15:17:44 10° NNE daylight
18 Sep - 18:42:13 10° NNW 18:45:31 18° NNE 18:49:00 10° ENE daylight
18 Sep - 20:24:45 10° NNW 20:29:37 62° NE 20:35:00 10° SE visible
18 Sep - 22:08:26 10° WNW 22:12:34 25° WSW 22:17:01 10° SSW visible
19 Sep - 11:12:22 10° SE 11:14:42 14° ESE 11:17:03 10° ENE daylight
19 Sep - 12:52:53 10° SW 12:57:12 78° NW 13:01:42 10° NE daylight
19 Sep - 14:38:05 10° WNW 14:41:11 18° NNW 14:44:23 10° NNE daylight
19 Sep - 18:08:51 10° NNW 18:11:41 15° NNE 18:14:39 10° ENE daylight
19 Sep - 19:51:17 10° NNW 19:56:01 47° NE 20:01:14 10° ESE visible
19 Sep - 21:34:36 10° NW 21:39:10 35° WSW 21:44:08 10° S visible
20 Sep - 12:19:23 10° SSW 12:23:41 74° ESE 12:28:09 10° NE daylight
20 Sep - 14:03:55 10° W 14:07:23 22° NNW 14:11:00 10° NNE daylight
20 Sep - 15:51:32 10° NNW 15:52:24 10° N 15:53:17 10° N daylight
20 Sep - 17:35:30 10° N 17:37:49 13° NNE 17:40:13 10° NE daylight
20 Sep - 19:17:51 10° NNW 19:22:23 36° NE 19:27:20 10° ESE visible
20 Sep - 21:00:55 10° NW 21:05:44 48° WSW 21:11:02 10° SSE visible
21 Sep - 11:46:03 10° SSW 11:50:13 50° ESE 11:54:32 10° NE daylight
21 Sep - 13:29:52 10° W 13:33:39 28° NW 13:37:36 10° NNE daylight
21 Sep - 15:17:00 10° NNW 15:18:28 11° NNW 15:19:58 10° N daylight
21 Sep - 17:02:08 10° N 17:03:54 12° NNE 17:05:43 10° NE daylight
21 Sep - 18:44:26 10° NNW 18:48:42 29° NE 18:53:18 10° E daylight
21 Sep - 20:27:18 10° NW 20:32:15 66° WSW 20:37:45 10° SSE visible
21 Sep - 22:13:04 10° W 22:14:43 11° WSW 22:16:24 10° WSW visible
22 Sep - 11:12:54 10° S 11:16:49 34° ESE 11:20:50 10° NE daylight
22 Sep - 12:55:56 10° WSW 12:59:57 36° NW 13:04:11 10° NNE daylight
22 Sep - 14:42:32 10° NW 14:44:33 13° NNW 14:46:38 10° N daylight
22 Sep - 16:28:45 10° N 16:29:58 11° N 16:31:13 10° NNE daylight
22 Sep - 18:11:02 10° NNW 18:14:58 24° NE 18:19:10 10° E daylight
22 Sep - 19:53:44 10° NW 19:58:45 88° SW 20:04:18 10° SE visible
22 Sep - 21:38:13 10° WNW 21:41:25 17° WSW 21:44:47 10° SW visible
23 Sep - 10:39:59 10° SSE 10:43:27 24° ESE 10:47:00 10° ENE daylight
23 Sep - 12:22:06 10° WSW 12:26:19 49° NW 12:30:44 10° NNE daylight
23 Sep - 14:08:09 10° WNW 14:10:40 15° NNW 14:13:16 10° NNE daylight
23 Sep - 15:55:19 10° N 15:56:01 10° N 15:56:44 10° NNE daylight
23 Sep - 17:37:39 10° NNW 17:41:11 20° NNE 17:44:56 10° ENE daylight
23 Sep - 19:20:14 10° NNW 19:25:12 70° NE 19:30:42 10° SE visible
23 Sep - 21:04:05 10° WNW 21:08:05 23° WSW 21:12:21 10° SSW visible
24 Sep - 10:07:23 10° SSE 10:10:08 17° ESE 10:12:55 10° ENE daylight
24 Sep - 11:48:25 10° SW 11:52:44 69° NW 11:57:15 10° NNE daylight
24 Sep - 13:33:51 10° WNW 13:36:49 17° NNW 13:39:54 10° NNE daylight
24 Sep - 15:21:33 10° N 15:22:03 10° N 15:22:34 10° N daylight
24 Sep - 17:04:16 10° NNW 17:07:21 17° NNE 17:10:36 10° ENE daylight
24 Sep - 18:46:45 10° NNW 18:51:37 53° NE 18:56:58 10° SE daylight
24 Sep - 20:30:12 10° NW 20:34:41 31° WSW 20:39:34 10° S visible
25 Sep - 09:35:36 10° ESE 09:36:52 11° ESE 09:38:08 10° E daylight
25 Sep - 11:14:52 10° SSW 11:19:11 84° SE 11:23:43 10° NE daylight
25 Sep - 12:59:38 10° W 13:03:00 21° NNW 13:06:31 10° NNE daylight
25 Sep - 14:47:14 10° NNW 14:48:06 10° N 14:48:59 10° N daylight
25 Sep - 16:30:53 10° NNW 16:33:29 14° NNE 16:36:12 10° NE daylight
25 Sep - 18:13:18 10° NNW 18:17:59 40° NE 18:23:07 10° ESE daylight
25 Sep - 19:56:28 10° NW 20:01:16 43° WSW 20:06:32 10° S visible
26 Sep - 10:41:28 10° SSW 10:45:42 58° ESE 10:50:07 10° NE daylight
26 Sep - 12:25:33 10° W 12:29:14 26° NW 12:33:07 10° NNE daylight
26 Sep - 14:12:46 10° NNW 14:14:09 11° N 14:15:34 10° N daylight
26 Sep - 15:57:30 10° N 15:59:35 13° NNE 16:01:45 10° NE daylight
26 Sep - 17:39:52 10° NNW 17:44:18 32° NE 17:49:08 10° ESE daylight
26 Sep - 19:22:49 10° NW 19:27:48 59° WSW 19:33:19 10° SSE visible
27 Sep - 10:08:14 10° S 10:12:16 40° ESE 10:16:27 10° NE daylight
27 Sep - 11:51:33 10° WSW 11:55:31 33° NW 11:59:42 10° NNE daylight
27 Sep - 13:38:18 10° NW 13:40:13 12° NNW 13:42:11 10° N daylight
27 Sep - 15:24:05 10° N 15:25:39 11° NNE 15:27:16 10° NNE daylight
27 Sep - 17:06:28 10° NNW 17:10:35 26° NE 17:15:02 10° E daylight
27 Sep - 18:49:14 10° NW 18:54:18 80° SW 18:59:55 10° SSE daylight
27 Sep - 20:34:02 10° WNW 20:36:54 15° WSW 20:39:53 10° SW visible
